www.pogodaiklimat.ru

Погода и климат >> Архив погоды >> Япония >> Момбецу


ПОГОДА в Момбецу

  • Прогноз погоды в Момбецу
  • Монитор погоды в Момбецу

АРХИВ ПОГОДЫ в Момбецу

Время (UTC), дата Ветер
(напр.,м/с)
 
Видим.   Явления Облачность Т
(С)
Тd
(С)
f
(%)
Тe
(С)
Тes
(С)
Комфортность P
(гПа)
Po
(гПа)
Тmin
(С)
Tmax
(С)
R
(мм)
R24
(мм)
S
(см)
19 16.09 СЗ 4 20 км в посл. час дождь н/о +17.3 +15.5 89 +17 +17 1006.6 1004.5
20 16.09 С 7 20 км в посл. час дождь н/о +17.4 +14.9 85 +16 +16 1007.4 1005.3
21 16.09 СЗ 5 20 км {дождь} н/о +16.9 +15.1 89 +16 +16 1008.2 1006.1
22 16.09 СЗ 5 20 км н/о +17.4 +14.7 84 +17 +17 1008.7 1006.6
23 16.09 СЗ 4 20 км н/о +18.7 +14.8 78 +20 +20 1009.3 1007.2
00 17.09 СЗ 4 20 км {дождь} н/о +19.4 +14.5 73 +21 +21 комфорт 1009.7 1007.6 +16.9 11
01 17.09 СЗ 6 20 км н/о +19.4 +13.8 70 +21 +21 комфорт 1009.7 1007.6
02 17.09 С 4 20 км н/о +20.1 +15.3 74 +23 +23 комфорт 1009.5 1007.4
03 17.09 С 4 20 км н/о +19.4 +14.0 71 +21 +21 комфорт 1009.8 1007.7
04 17.09 С 4 20 км н/о +19.4 +13.4 68 +21 +21 комфорт 1009.7 1007.6
05 17.09 С 4 20 км н/о +19.7 +14.1 70 +22 +22 комфорт 1009.8 1007.7
06 17.09 С 5 20 км н/о +18.5 +13.4 72 +19 +19 1011.0 1008.9
07 17.09 СЗ 4 20 км н/о +17.9 +11.9 68 +18 +18 1011.5 1009.4
08 17.09 СЗ 5 н/о н/о +17.2 +11.3 68 +17 +17 1012.1 1010.0
09 17.09 СЗ 5 20 км {дождь} н/о +16.1 +10.6 70 +15 +15 1012.9 1010.8
10 17.09 СЗ 4 20 км н/о +16.2 +11.0 71 +16 +16 1013.8 1011.7
11 17.09 З 3 н/о н/о +15.7 +11.5 76 +15 +15 1014.1 1012.0
12 17.09 СЗ 2 20 км {дождь} н/о +15.3 +11.3 77 +15 +15 1014.4 1012.3 +20.6
13 17.09 З 3 20 км в посл. час дождь н/о +14.5 +10.1 75 +14 +14 1014.6 1012.5
14 17.09 З 3 20 км н/о +14.1 +8.9 71 +13 +13 1014.5 1012.4
15 17.09 ЮЗ 3 20 км {дождь} н/о +11.9 +10.3 90 +10 +10 1014.6 1012.5
16 17.09 ЮЗ 3 20 км н/о +11.2 +10.1 93 +9 +9 1014.5 1012.4
17 17.09 Ю 3 20 км слаб. дождь н/о +11.1 +9.9 92 +9 +9 1014.0 1011.9
18 17.09 Ю 3 20 км слаб. дождь н/о +10.9 +9.7 92 +9 +9 1014.2 1012.1 0.0
19 17.09 ЮЗ 4 20 км в посл. час дождь н/о +10.3 +9.1 92 +8 +8 1014.2 1012.1
20 17.09 ЮЗ 3 20 км н/о +10.3 +8.9 91 +8 +8 1014.0 1011.9
21 17.09 ЮЗ 4 20 км {дождь} н/о +10.3 +8.9 91 +8 +8 1014.3 1012.2
23 17.09 Ю 2 20 км н/о +13.9 +10.0 77 +14 +14 1013.4 1011.3
00 18.09 ЮВ 3 20 км {дождь} н/о +15.4 +11.6 78 +15 +15 1012.7 1010.6 +9.8
01 18.09 ЮВ 3 20 км слаб. дождь н/о +15.9 +11.7 76 +15 +15 1011.6 1009.5
02 18.09 ЮВ 2 н/о н/о +16.9 +12.5 75 +17 +17 1010.8 1008.7
03 18.09 ЮВ 2 н/о н/о +16.8 +11.9 73 +17 +17 1010.3 1008.2
04 18.09 Ю 2 20 км н/о +17.4 +12.5 73 +18 +18 1009.1 1007.0
05 18.09 В 2 20 км н/о +18.1 +12.3 69 +19 +19 1007.6 1005.5
06 18.09 З 3 20 км {дождь} н/о +17.8 +12.9 73 +18 +18 1007.4 1005.3
07 18.09 Ю 1 20 км н/о +19.1 +12.8 67 +21 +21 комфорт 1006.5 1004.4
09 18.09 Ю 3 20 км н/о +16.6 +13.9 84 +16 +16 1005.1 1003.0
10 18.09 ЮЗ 2 20 км н/о +15.5 +13.0 85 +16 +16 1004.5 1002.4
11 18.09 ЮЗ 3 20 км слаб. дождь н/о +16.5 +12.3 76 +16 +16 1004.4 1002.3
12 18.09 З 2 15 км н/о +15.9 +13.0 83 +16 +16 1000.0 1002.7
13 18.09 ЮЗ 4 9000 м дождь н/о +14.9 +13.3 90 +14 +14 1006.3 1004.2
14 18.09 ЮЗ 3 20 км слаб. дождь н/о +14.4 +11.0 80 +13 +13 1006.4 1004.3
15 18.09 З 5 20 км слаб. дождь н/о +13.8 +9.3 74 +12 +12 1006.6 1004.5
16 18.09 З 5 20 км слаб. дождь н/о +12.8 +7.1 68 +11 +11 1007.0 1004.9
17 18.09 ЮВ 3 20 км в посл. час дождь н/о +11.7 +6.8 72 +10 +10 1006.2 1004.1
18 18.09 ЮЗ 3 20 км слаб. дождь н/о +11.3 +4.8 64 +10 +10 1006.7 1004.6 3
19 18.09 ЮЗ 3 20 км слаб. дождь н/о +10.5 +5.3 70 +9 +9 1006.7 1004.6
20 18.09 Ю 2 20 км слаб. дождь н/о +9.8 +4.8 71 +8 +8 1006.9 1004.8
21 18.09 ЮЗ 4 20 км в посл. час дождь н/о +10.6 +3.9 63 +9 +9 1007.1 1005.0
22 18.09 ЮЗ 5 20 км н/о +11.7 +4.7 62 +10 +10 1006.9 1004.8
23 18.09 ЮЗ 6 20 км в посл. час дождь н/о +12.6 +5.3 61 +10 +10 1006.5 1004.4
00 19.09 ЮЗ 5 20 км {дождь} н/о +13.7 +5.1 56 +12 +12 1006.4 1004.3 +9.1 3
01 19.09 З 6 20 км слаб. дождь н/о +13.7 +6.1 60 +12 +12 1006.5 1004.4
02 19.09 ЮЗ 6 20 км в посл. час дождь н/о +13.9 +4.2 52 +12 +12 1005.2 1003.1
03 19.09 ЮЗ 5 20 км слаб. дождь н/о +12.3 +7.0 70 +10 +10 1005.4 1003.3
04 19.09 ЮЗ 6 20 км слаб. дождь н/о +12.2 +6.3 67 +10 +10 1005.2 1003.1
05 19.09 ЮЗ 5 20 км в посл. час дождь н/о +13.6 +5.5 58 +12 +12 1004.7 1002.6
06 19.09 ЮЗ 6 20 км {дождь} н/о +13.2 +4.9 57 +11 +11 1004.7 1002.6 1
07 19.09 ЮЗ 4 20 км н/о +12.7 +6.1 64 +11 +11 1004.3 1002.2
08 19.09 Ю 4 20 км н/о +11.1 +6.1 71 +9 +9 1003.9 1001.8
09 19.09 ЮЗ 3 20 км слаб. дождь н/о +11.1 +5.9 70 +9 +9 1004.2 1002.1
10 19.09 З 5 8000 м дождь н/о +9.9 +7.3 84 +7 +7 1005.1 1003.0
11 19.09 ЮЗ 4 20 км слаб. дождь н/о +9.7 +7.3 85 +7 +7 1005.2 1003.1
12 19.09 ЮЗ 3 20 км слаб. дождь н/о +9.4 +7.2 86 +7 +7 1005.1 1003.0 +14.8 4
13 19.09 Ю 2 20 км в посл. час дождь н/о +9.3 +7.1 86 +8 +8 1005.1 1003.0
14 19.09 ЮЗ 2 20 км слаб. дождь н/о +8.5 +7.3 92 +7 +7 1005.0 1002.9
15 19.09 СЗ 1 20 км слаб. дождь н/о +9.4 +6.8 84 +9 +9 1005.1 1003.0
16 19.09 ЮЗ 2 20 км в посл. час дождь н/о +9.9 +6.6 80 +8 +8 1005.0 1002.9
18 19.09 З 2 20 км в посл. час дождь н/о +9.6 +7.4 86 +8 +8 1006.0 1003.9 0.0
19 19.09 СЗ 4 20 км слаб. дождь н/о +10.0 +8.3 89 +7 +7 1007.0 1004.9
20 19.09 З 4 20 км слаб. дождь н/о +10.3 +8.4 88 +8 +8 1007.7 1005.6
21 19.09 З 5 20 км слаб. дождь н/о +10.8 +8.2 84 +8 +8 1008.2 1006.1
22 19.09 З 4 20 км слаб. дождь н/о +11.8 +8.5 80 +10 +10 1008.7 1006.6
23 19.09 З 5 20 км слаб. дождь н/о +12.3 +9.0 80 +10 +10 1009.5 1007.4
00 20.09 СЗ 4 20 км слаб. дождь н/о +13.3 +9.9 80 +12 +12 1009.9 1007.8 +8.4 1
01 20.09 СЗ 4 20 км слаб. дождь н/о +13.5 +10.1 80 +12 +12 1010.1 1008.0
02 20.09 СЗ 4 20 км в посл. час дождь н/о +15.1 +9.5 69 +14 +14 1010.2 1008.1
03 20.09 СЗ 6 14 км слаб. дождь н/о +13.4 +9.7 78 +11 +11 1010.9 1008.8
04 20.09 СЗ 5 20 км слаб. дождь н/о +15.5 +10.3 71 +14 +14 1011.2 1009.1
05 20.09 СЗ 5 20 км слаб. дождь н/о +14.0 +10.4 79 +12 +12 1011.9 1009.8
06 20.09 СЗ 3 16 км слаб. дождь н/о +13.8 +11.3 85 +13 +13 1013.1 1011.0 2
07 20.09 З 2 20 км в посл. час дождь н/о +14.1 +11.1 82 +14 +14 1014.2 1012.1
08 20.09 З 3 20 км н/о +14.1 +8.9 71 +13 +13 1015.2 1013.1
09 20.09 З 4 20 км {дождь} н/о +13.3 +8.4 72 +12 +12 1016.2 1014.1
10 20.09 З 4 20 км н/о +13.0 +7.7 70 +12 +12 1017.4 1015.3
11 20.09 З 4 20 км н/о +13.2 +7.4 68 +12 +12 1018.2 1016.1
12 20.09 З 4 20 км {дождь} н/о +13.6 +7.2 65 +12 +12 1018.8 1016.7 +16.3 2
13 20.09 З 4 20 км в посл. час дождь н/о +13.4 +7.4 67 +12 +12 1019.4 1017.3
14 20.09 З 4 20 км слаб. дождь н/о +12.9 +8.0 72 +11 +11 1019.8 1017.7
15 20.09 З 4 20 км в посл. час дождь н/о +13.3 +8.0 70 +12 +12 1020.5 1018.4
16 20.09 З 3 20 км н/о +12.8 +8.3 74 +11 +11 1021.1 1019.0
17 20.09 З 3 20 км н/о +13.0 +8.3 73 +12 +12 1021.4 1019.3
18 20.09 З 3 20 км {дождь} н/о +12.8 +8.3 74 +12 +12 1021.8 1019.7 0.0
19 20.09 З 3 20 км н/о +12.7 +8.4 75 +12 +12 1021.9 1019.8
20 20.09 З 3 20 км н/о +12.3 +8.2 76 +11 +11 1022.4 1020.3
21 20.09 Ю 3 20 км н/о +10.1 +8.2 88 +8 +8 1023.0 1020.8
22 20.09 Ю 3 20 км н/о +12.8 +8.9 77 +12 +12 1023.3 1021.2
23 20.09 Ю 2 20 км н/о +15.0 +9.6 70 +15 +15 1023.8 1021.7
00 21.09 СЗ 2 20 км н/о +15.9 +9.1 64 +16 +16 1024.0 1021.9 +9.8 0.0
01 21.09 СВ 3 20 км н/о +16.9 +10.1 64 +17 +17 1023.6 1021.5
02 21.09 СВ 3 20 км н/о +17.0 +10.4 65 +17 +17 1023.2 1021.1
03 21.09 СВ 3 20 км н/о +17.6 +11.4 67 +18 +18 1023.0 1020.9
04 21.09 В 3 20 км н/о +17.6 +11.4 67 +18 +18 1022.5 1020.4
05 21.09 В 3 20 км н/о +17.5 +11.3 67 +18 +18 1022.2 1020.1
06 21.09 В 2 20 км н/о +17.2 +10.1 63 +18 +18 1022.0 1019.9
07 21.09 В 2 20 км н/о +17.0 +9.4 61 +17 +17 1022.5 1020.4
08 21.09 В 2 20 км н/о +16.2 +8.9 62 +16 +16 1022.2 1020.1
09 21.09 Ю 1 20 км в посл. час дождь н/о +15.2 +10.2 72 +16 +16 1022.4 1020.3
10 21.09 Ю 2 20 км слаб. дождь н/о +14.5 +10.1 75 +14 +14 1022.3 1020.2
11 21.09 Ю 2 20 км в посл. час дождь н/о +13.8 +10.2 79 +13 +13 1022.2 1020.1
12 21.09 Ю 3 20 км {дождь} н/о +12.6 +10.0 84 +11 +11 1021.8 1019.7 +17.9 0.0
13 21.09 Ю 3 20 км н/о +11.8 +9.9 88 +10 +10 1021.3 1019.2
14 21.09 Ю 3 20 км н/о +11.6 +9.9 89 +10 +10 1020.9 1018.8
15 21.09 ЮЗ 3 20 км н/о +12.6 +10.0 84 +11 +11 1020.6 1018.5
16 21.09 Ю 3 20 км н/о +12.2 +9.6 84 +11 +11 1020.2 1018.1
17 21.09 ЮЗ 3 20 км н/о +13.1 +9.0 76 +12 +12 1019.9 1017.8
18 21.09 Ю 2 20 км н/о +12.6 +8.9 78 +12 +12 1019.7 1017.6
19 21.09 ЮЗ 3 20 км н/о +12.7 +9.0 78 +11 +11 1019.4 1017.3
20 21.09 ЮЗ 4 20 км н/о +13.1 +8.8 75 +12 +12 1019.2 1017.1
21 21.09 ЮЗ 3 20 км н/о +13.7 +8.8 72 +13 +13 1019.4 1017.3
22 21.09 ЮЗ 3 20 км н/о +14.3 +10.1 76 +14 +14 1019.5 1017.4
23 21.09 С 2 20 км н/о +16.7 +11.0 69 +17 +17 1019.5 1017.4
00 22.09 СЗ 2 20 км н/о +18.1 +12.3 69 +19 +19 1019.4 1017.3 +11.5
01 22.09 СЗ 2 20 км н/о +18.1 +12.1 68 +19 +19 1019.1 1017.0
02 22.09 З 4 20 км н/о +19.6 +10.9 57 +21 +21 комфорт 1018.9 1016.8
03 22.09 З 5 20 км н/о +19.5 +9.1 51 +20 +20 1018.9 1016.8
04 22.09 СЗ 3 20 км н/о +20.7 +10.5 52 +23 +23 комфорт 1018.8 1016.7
05 22.09 СЗ 4 20 км н/о +19.7 +9.3 51 +21 +21 комфорт 1018.8 1016.7
06 22.09 СЗ 5 20 км н/о +19.5 +8.8 50 +20 +20 1018.9 1016.8
07 22.09 СЗ 4 20 км н/о +18.9 +9.1 53 +19 +19 1019.1 1017.0
08 22.09 СЗ 4 20 км слаб. дождь н/о +17.0 +9.9 63 +17 +17 1019.8 1017.7
09 22.09 СЗ 4 20 км слаб. дождь н/о +15.7 +9.8 68 +15 +15 1020.6 1018.5
10 22.09 З 3 20 км н/о +14.5 +9.1 70 +14 +14 1021.1 1019.0
11 22.09 З 3 20 км н/о +14.9 +8.8 67 +14 +14 1021.6 1019.5
12 22.09 Ю 3 20 км слаб. дождь н/о +12.5 +9.7 83 +11 +11 1021.7 1019.6 +21.0 0.0
13 22.09 ЮЗ 3 20 км слаб. дождь н/о +12.4 +9.6 83 +11 +11 1021.6 1019.5
14 22.09 ЮЗ 3 20 км в посл. час дождь н/о +11.6 +9.5 87 +10 +10 1021.0 1018.9
15 22.09 ЮЗ 3 20 км {дождь} н/о +11.4 +9.7 89 +10 +10 1020.7 1018.6
16 22.09 Ю 3 20 км н/о +11.2 +9.5 89 +10 +10 1021.0 1018.9
17 22.09 ЮЗ 3 20 км н/о +11.1 +9.4 89 +9 +9 1020.5 1018.4
18 22.09 Ю 2 20 км {дождь} н/о +10.9 +9.3 90 +10 +10 1020.5 1018.4
19 22.09 ЮЗ 1 20 км н/о +11.1 +9.4 89 +11 +11 1020.5 1018.4
20 22.09 Ю 3 20 км н/о +11.4 +9.7 89 +10 +10 1020.2 1018.1
21 22.09 Ю 2 20 км н/о +11.9 +10.3 90 +11 +11 1020.0 1017.9
22 22.09 Ю 2 20 км н/о +12.7 +10.8 88 +12 +12 1019.8 1017.7
23 22.09 ЮВ 3 20 км н/о +15.1 +12.1 82 +15 +15 1018.8 1016.7
00 23.09 ЮВ 4 20 км н/о +15.6 +12.4 81 +15 +15 1017.8 1015.7 +10.9
01 23.09 ЮВ 4 20 км н/о +16.0 +11.8 76 +15 +15 1017.0 1014.9
02 23.09 ЮВ 4 20 км н/о +16.6 +12.0 74 +16 +16 1015.9 1013.8
03 23.09 ЮВ 4 20 км слаб. дождь н/о +16.4 +12.2 76 +16 +16 1014.5 1012.4
04 23.09 ЮВ 4 14 км слаб. дождь н/о +14.7 +13.4 92 +14 +14 1013.7 1011.6
05 23.09 ЮВ 4 20 км слаб. дождь н/о +15.0 +13.7 92 +14 +14 1012.2 1010.1
06 23.09 ЮВ 4 20 км слаб. дождь н/о +15.0 +14.1 94 +14 +14 1011.3 1009.2 2
07 23.09 ЮВ 4 11 км слаб. дождь н/о +14.8 +14.0 95 +13 +13 1010.8 1008.7
08 23.09 ЮВ 4 6000 м дождь н/о +14.7 +14.4 98 +14 +14 1010.0 1007.9
09 23.09 ЮВ 4 5000 м дождь н/о +14.6 +14.3 98 +13 +13 1009.4 1007.3
10 23.09 В 5 5000 м дождь н/о +14.6 +14.1 97 +13 +13 1008.9 1006.8
11 23.09 В 5 8000 м слаб. дождь н/о +14.3 +13.8 97 +13 +13 1007.8 1005.7
12 23.09 В 5 12 км слаб. дождь н/о +14.5 +13.9 96 +13 +13 1005.7 1003.6 +16.7 22
13 23.09 В 5 6000 м слаб. дождь н/о +14.7 +14.2 97 +13 +13 1004.7 1002.6
14 23.09 В 6 7000 м слаб. дождь н/о +14.7 +14.2 97 +13 +13 1003.5 1001.4
15 23.09 В 5 8000 м слаб. дождь н/о +14.8 +14.5 98 +13 +13 1002.7 1000.6
16 23.09 В 5 18 км слаб. дождь н/о +14.7 +13.9 95 +13 +13 1002.1 1000.0
17 23.09 СВ 5 4800 м слаб. дождь н/о +14.2 +13.9 98 +12 +12 1001.8 999.7
18 23.09 СВ 4 3400 м слаб. дождь н/о +13.9 +13.8 99 +12 +12 1002.2 1000.1 4
19 23.09 С 2 4600 м слаб. дождь н/о +13.6 +13.5 99 +13 +13 1002.6 1000.5

 

Местоположение метеостанции Момбецу (Япония): широта 44.35 долгота 143.35 высота над уровнем моря 16 м.

В архиве по умолчанию представлена погода в Момбецу за последнюю неделю. Архивные данные за месяц целиком и за предыдущие месяцы, начиная с января 2011 года, Вы можете получить, выбрав интересующий диапазон дат из раскрывающегося списка и нажав кнопку "Ввод!".


*Определитесь, кто Вы:
робот инопланетянин человек

Внимание! Время в таблицах - всемирное. Для получения местного времени необходимо прибавить поправку, которая равна 9 ч.

Смотрите также архив погоды в соседних городах и на ближайших метеорологических станциях:

Погода в Омурайсу (Япония) (40 км)
Погода в Абасири (Япония) (83 км)
Погода в Китами Сачи (Япония) (89 км)
Погода в Асахикаве (Япония) (102 км)
Погода в Хаборо (Япония) (131 км)
Погода в Румои (Япония) (144 км)
Погода в Обихиро (Япония) (159 км)
Погода в Кусиро (Япония) (173 км)
Погода в Вакканае (Япония) (177 км)
Погода в Ивамидзаве (Япония) (178 км)

Пояснения к столбцам:

Ветер - указаны скорость ветра в м/с - средняя за 10 мин, порывы в срок и между сроками (в фигурных скобках) и направление, откуда дует ветер: С - северный, СВ - северо-восточный, В - восточный, ЮВ - юго-восточный, Ю - южный, ЮЗ - юго-западный, З - западный, СЗ - северо-западный.
Видимость - горизонтальная дальность видимости в метрах или километрах. При видимости от 1 до 10 км при отсутствии осадков обычно наблюдается дымка, при ухудшении видимости до 1 км и менее - туман. В сухую погоду видимость может ухудшаться дымом, пылью или мглою.
Явления - указаны атмосферные явления, наблюдавшиеся в срок или в последний час перед сроком; фигурными скобками обозначены явления, наблюдавшиеся между сроками (за 1-3 часа до срока); квадратными скобками обозначены град или гололедные отложения с указанием их диаметра в мм.
Облачность - указаны через наклонную черту общая и нижняя облачность в баллах и высота нижней границы облаков в метрах; квадратными скобками обозначены формы облаков: Ci - перистые, Cs - перисто-слоистые, Cc - перисто-кучевые, Ac - высококучевые, As - высокослоистые, Sc - слоисто-кучевые, Ns - слоисто-дождевые, Cu - кучевые, Cb - кучево-дождевые. Подробнее классификацию облаков см. в Атласе облаков (PDF).
T - Температура воздуха - температура, измеренная на высоте 2 м над землей.
Td - Температура точки росы - температура, при понижении до которой содержащийся в воздухе водяной пар достигнет насыщения.
f - Относительная влажность воздуха - влажноcть воздуха, измеренная на высоте 2 м над землей.
Te - Эффективная температура - температура, которую ощущает одетый по сезону человек в тени. Характеристика душности погоды. При расчете учитывается влияние влажности воздуха и скорости ветра на теплоощущения человека.
Tes - Эффективная температура на солнце - температура, которую ощущает человек, с поправкой на солнечный нагрев. Характеристика знойности погоды. Зависит от высоты солнца над горизонтом, облачности и скорости ветра. Ночью, в пасмурную погоду, а также при ветре 12 м/с и более поправка равна нулю.
P - Атмосферное давление - приведенное к уровню моря атмосферное давление.
Po - Атмосферное давление - измеренное на уровне метеостанции атмосферное давление.
Tmin - Минимальная температура - минимум температуры воздуха на высоте 2 м над землей.
Tmax - Максимальная температура - максимум температуры воздуха на высоте 2 м над землей.
R - Количество осадков - Количество выпавших осадков за период времени, мм. При наведении курсора мыши на число - период времени, за который выпало указанное количество осадков.
R24 - Количество осадков - Количество выпавших осадков за 24 часа, мм.
S - Снежный покров - Высота снежного покрова, см. При наведении курсора мыши на число - состояние снежного покрова и степень покрытия местности в баллах.